EW8143 Sater SE current weather conditions

sailwx.info

Wind from 101

Air temperature 16.1° C
Dewpoint 13.8° C

Last reported at 2020-Aug-12 06:00 UTC.
Time now 2020-Aug-12 06:44 UTC

Location: N 60°25' E 015°35'.
View on Google Maps.

See reports from other nearby stations

  
Tides and Currents Weather Stations Pressure Air Temp Water Temp Dewpoint Dewpoint Depression Visibility Wind Speed Wind Dir Waves Ship Positions
date/time (UTC)wind fromknots sea level pressurealtimeterstation pressurevisibilityair tempwater tempwave heightnotes
2020-Aug-12 06:00 101 16.1
2020-Aug-12 05:45 101 14.4
2020-Aug-12 05:30 100 14.4
2020-Aug-12 05:15 100 13.9
2020-Aug-12 05:00 100 13.9
2020-Aug-12 04:46 102 13.9
2020-Aug-12 04:31 103 13.9
2020-Aug-12 04:16 103 13.9
2020-Aug-12 04:01 103 13.9
2020-Aug-12 03:46 103 13.9
2020-Aug-12 03:31 103 13.9
2020-Aug-12 03:16 103 13.9
2020-Aug-12 03:01 103 13.9
2020-Aug-12 02:46 103 13.9
2020-Aug-12 02:31 105 13.9
2020-Aug-12 02:16 105 13.9
2020-Aug-12 02:01 105 13.9
2020-Aug-12 01:47 105 13.9
2020-Aug-12 01:31 105 13.9
2020-Aug-12 01:16 105 13.9
2020-Aug-12 01:00 105 13.9
2020-Aug-12 00:45 105 13.9
2020-Aug-12 00:31 105 13.9
2020-Aug-12 00:15 105 13.9
2020-Aug-12 00:00 114 13.3
2020-Aug-11 23:46 115 13.3
2020-Aug-11 23:30 110 13.3
2020-Aug-11 23:16 067 13.3
2020-Aug-11 23:01 067 12.8
2020-Aug-11 22:45 084 12.8
2020-Aug-11 22:30 084 12.8
2020-Aug-11 22:16 084 13.3
2020-Aug-11 21:46 084 13.3
2020-Aug-11 21:30 084 13.3
2020-Aug-11 21:16 084 13.9
2020-Aug-11 21:01 084 13.9
2020-Aug-11 20:45 084 14.4
2020-Aug-11 20:30 084 15.0
2020-Aug-11 20:15 084 15.0
2020-Aug-11 20:00 084 15.6
2020-Aug-11 19:45 084 16.1
2020-Aug-11 19:30 084 16.7
2020-Aug-11 19:15 084 17.8
2020-Aug-11 19:00 084 18.9
2020-Aug-11 18:45 084 20.0
2020-Aug-11 18:30 084 20.6
2020-Aug-11 18:15 084 20.6
2020-Aug-11 18:00 084 21.1
2020-Aug-11 17:45 084 21.7
2020-Aug-11 17:30 084 22.2
2020-Aug-11 17:16 084 22.2
2020-Aug-11 17:00 058 22.2
2020-Aug-11 16:45 063 22.2
2020-Aug-11 16:30 053 22.2
2020-Aug-11 16:00 104 22.8
2020-Aug-11 15:45 040 22.8
2020-Aug-11 15:30 055 22.8
2020-Aug-11 15:16 075 22.8
2020-Aug-11 15:02 034 22.8
2020-Aug-11 14:46 065 23.3
2020-Aug-11 14:31 026 23.3
2020-Aug-11 14:17 056 23.9
2020-Aug-11 14:01 038 1 gusting 5 23.9
2020-Aug-11 13:46 023 23.9
2020-Aug-11 13:31 360 2 gusting 7 23.9
2020-Aug-11 13:16 060 23.9
2020-Aug-11 13:01 060 0 gusting 4 23.9
2020-Aug-11 12:46 047 23.3
2020-Aug-11 12:31 022 0 gusting 4 23.3
2020-Aug-11 12:16 026 23.3
2020-Aug-11 12:01 046 23.3
2020-Aug-11 11:45 060 22.8
2020-Aug-11 11:30 348 23.3
2020-Aug-11 11:16 051 22.8
2020-Aug-11 11:02 016 22.8
2020-Aug-11 10:46 053 22.8
2020-Aug-11 10:30 033 22.8
2020-Aug-11 10:15 078 0 gusting 5 22.2
2020-Aug-11 10:00 051 0 gusting 3 22.2
2020-Aug-11 09:45 117 22.2
2020-Aug-11 09:30 050 0 gusting 5 21.7
2020-Aug-11 09:15 086 21.1
2020-Aug-11 09:00 360 21.1
2020-Aug-11 08:45 132 20.6
2020-Aug-11 08:30 061 20.0
2020-Aug-11 08:16 068 0 gusting 4 19.4
2020-Aug-11 08:02 067 18.9
2020-Aug-11 07:46 139 18.3
2020-Aug-11 07:31 067 17.8
2020-Aug-11 07:15 042 17.2
2020-Aug-11 07:00 128 0 gusting 3 16.1
2020-Aug-11 06:46 059 15.6
2020-Aug-11 06:31 015 15.0
2020-Aug-11 06:15 078 13.9
2020-Aug-11 06:00 045 12.8
2020-Aug-11 05:45 046 11.7
2020-Aug-11 05:30 046 10.6
2020-Aug-11 05:15 046 9.4
2020-Aug-11 05:00 046 8.3
2020-Aug-11 04:45 046 7.2
2020-Aug-11 04:32 046 6.7
2020-Aug-11 04:16 046 6.1
2020-Aug-11 04:03 046 6.1
2020-Aug-11 03:46 046 6.1
2020-Aug-11 03:31 046 6.1
2020-Aug-11 03:17 046 6.1
2020-Aug-11 03:02 046 6.1
2020-Aug-11 02:46 046 6.7
2020-Aug-11 02:31 046 6.7
2020-Aug-11 02:16 046 6.7
2020-Aug-11 02:01 046 7.2
2020-Aug-11 01:46 046 7.2
2020-Aug-11 01:31 046 7.8
2020-Aug-11 01:16 046 7.8
2020-Aug-11 01:01 046 7.8
2020-Aug-11 00:46 046 7.8
2020-Aug-11 00:31 046 8.3
2020-Aug-11 00:15 046 8.3
2020-Aug-11 00:00 046 8.9
2020-Aug-10 23:45 046 8.9
2020-Aug-10 23:30 046 9.4
2020-Aug-10 23:15 046 10.0
2020-Aug-10 23:00 046 10.6
2020-Aug-10 22:45 046 11.1
2020-Aug-10 22:30 046 11.1
2020-Aug-10 22:15 046 11.7
2020-Aug-10 22:02 046 13.3
2020-Aug-10 21:46 046 13.3
2020-Aug-10 21:33 046 13.3
2020-Aug-10 21:17 089 13.3
2020-Aug-10 21:01 089 13.9
2020-Aug-10 20:47 080 13.9
2020-Aug-10 20:31 089 13.9
2020-Aug-10 20:18 118 13.9
2020-Aug-10 20:02 095 13.9
2020-Aug-10 19:47 091 14.4
2020-Aug-10 19:32 057 15.0
2020-Aug-10 19:17 057 16.1
2020-Aug-10 19:01 057 17.2
2020-Aug-10 18:48 057 18.3
2020-Aug-10 18:31 057 20.0
2020-Aug-10 18:16 057 21.1
2020-Aug-10 18:01 057 21.7
2020-Aug-10 17:46 057 21.7
2020-Aug-10 17:33 057 21.7
2020-Aug-10 17:16 057 21.7
2020-Aug-10 17:02 057 21.7
2020-Aug-10 16:46 057 21.7
2020-Aug-10 16:31 116 21.1
2020-Aug-10 16:17 119 21.1
2020-Aug-10 16:01 029 21.1
2020-Aug-10 15:46 034 21.1
2020-Aug-10 15:31 315 21.1
2020-Aug-10 15:16 116 21.1
2020-Aug-10 15:01 108 21.7
2020-Aug-10 14:45 052 21.7
2020-Aug-10 14:31 124 22.2
2020-Aug-10 14:16 052 22.2
2020-Aug-10 14:01 038 22.8
2020-Aug-10 13:46 138 22.8
2020-Aug-10 13:31 071 0 gusting 5 22.8
2020-Aug-10 13:16 065 23.3
2020-Aug-10 13:01 067 22.8
2020-Aug-10 12:45 115 22.8
2020-Aug-10 12:30 263 22.2
2020-Aug-10 12:16 027 0 gusting 6 22.2
2020-Aug-10 12:00 317 0 gusting 4 22.2
2020-Aug-10 11:45 230 22.2
2020-Aug-10 11:30 142 22.2
2020-Aug-10 11:15 032 21.7
2020-Aug-10 11:00 346 0 gusting 4 21.1
2020-Aug-10 10:45 321 21.7
2020-Aug-10 10:30 028 21.7
2020-Aug-10 10:15 094 21.7
2020-Aug-10 10:00 022 0 gusting 3 21.1
2020-Aug-10 09:45 065 21.1
2020-Aug-10 09:30 108 20.6
2020-Aug-10 09:16 057 0 gusting 5 20.6
2020-Aug-10 09:01 092 20.6
2020-Aug-10 08:47 346 20.0
2020-Aug-10 08:31 304 19.4
2020-Aug-10 08:16 270 18.9
2020-Aug-10 08:01 285 0 gusting 2 18.3
2020-Aug-10 07:46 315 17.2
2020-Aug-10 07:30 300 16.7
2020-Aug-10 07:15 306 15.6
2020-Aug-10 07:01 284 0 gusting 3 15.6
2020-Aug-10 06:45 284 14.4
2020-Aug-10 06:30 302 14.4
2020-Aug-10 06:15 308 13.3
2020-Aug-10 06:00 278 1 gusting 2 12.8